Regional Weather Roundup
Issued by NWS Raleigh/Durham, NC

Home | Current Version | Previous Version | Text Only | Print | Product List | Glossary On
Versions: 1 2 3 4 5 6 7 8 9 10 11 12 13 14 15 16 17 18 19 20 21 22 23 24 25 26 27 28 29 30 31 32 33 34 35 36 37 38 39 40 41 42 43 44 45 46 47 48 49 50
000
ASUS42 KRAH 290110
RWRRAH
NORTH CAROLINA WEATHER ROUNDUP
NATIONAL WEATHER SERVICE RALEIGH NC
900 PM EDT MON JUL 28 2014

NOTE: "FAIR" INDICATES FEW OR NO CLOUDS BELOW 12,000 FEET WITH NO
SIGNIFICANT WEATHER AND/OR OBSTRUCTIONS TO VISIBILITY.

NCZ001-053-055-056-065-067-290200-
WESTERN NORTH CAROLINA

CITY           SKY/WX    TMP DP  RH WIND       PRES   REMARKS
ASHEVILLE      PTCLDY    70  57  63 N10       29.99R
JEFFERSON      PTCLDY    62  51  66 NW9G16    30.01R
MORGANTON      CLEAR     74  55  52 NW8       29.97R
HICKORY        MOCLDY    74  55  51 N6        29.91R
RUTHERFORDTON  CLEAR     73  61  66 CALM      29.92R
MOUNT AIRY     CLEAR     73  57  57 NW5       29.92R
BOONE          MOCLDY    65  52  63 N7        30.02R
$$

NCZ021-022-025-041-071-084-088-290200-
CENTRAL NORTH CAROLINA

CITY           SKY/WX    TMP DP  RH WIND       PRES   REMARKS
CHARLOTTE      MOCLDY    77  57  50 N6        29.89R
GREENSBORO     PTCLDY    77  56  48 NW5       29.88R
WINSTON-SALEM  MOCLDY    76  54  46 NW9       29.91R
RALEIGH-DURHAM MOCLDY    80  57  45 CALM      29.85R
FORT BRAGG     PTCLDY    82  63  52 CALM      29.83R
FAYETTEVILLE   CLOUDY    85  61  44 N9        29.82R
BURLINGTON     CLEAR     77  55  46 NW7       29.86R
LAURINBURG     MOCLDY    82  58  43 N6        29.83R
$$

NCZ011-015-027-028-043-044-047-080-103-290200-
NORTHEASTERN NORTH CAROLINA

CITY           SKY/WX    TMP DP  RH WIND       PRES   REMARKS
ROCKY MT-WILSO CLEAR     73  65  75 CALM      29.83R
GREENVILLE     PTCLDY    73  70  88 CALM      29.85S
WASHINGTON     CLEAR     76  69  78 CALM      29.82R
ELIZABETH CITY CLEAR     75  63  66 W8        29.80R
MANTEO         NOT AVBL
CAPE HATTERAS  CLOUDY    79  73  82 W8        29.80R
$$

NCZ078-087-090-091-093-098-101-290200-
SOUTHEASTERN NORTH CAROLINA

CITY           SKY/WX    TMP DP  RH WIND       PRES   REMARKS
LUMBERTON      CLOUDY    80  76  87 SE3       29.81R
GOLDSBORO      PTCLDY    82  67  61 N3        29.80R
KINSTON        CLEAR     75  68  78 CALM      29.82R
KENANSVILLE    PTCLDY    76  69  79 CALM      29.82S
NEW BERN       CLEAR     75  72  90 N5        29.82S
CHERRY POINT   MOCLDY    74  72  93 CALM      29.81S
BEAUFORT       CLOUDY    75  73  93 CALM      29.80F
JACKSONVILLE   PTCLDY    78  75  90 N6        29.80R
WILMINGTON     PTCLDY    73  71  93 SE5       29.81S
$$



USA.gov is the U.S. government's official web portal to all federal, state and local government web resources and services.